Location: Sedan
(39.2354°N, 78.5718°W)
Time: 22:06:49
(UTC+00:00)

Envisat - Visible Passes

Search period start: 02 December 2021 00:00
Search period end: 12 December 2021 00:00
Orbit: 764 x 766 km, 98.2° (Epoch: 02 December)

Date Brightness Start Highest point End Pass type
(mag) Time Alt. Az. Time Alt. Az. Time Alt. Az.
02 Dec 3.1 10:10:34 10° NNE 10:15:40 77° ESE 10:20:44 10° S visible
03 Dec 4.6 09:34:08 10° NNE 09:38:42 33° E 09:43:14 10° SSE visible
03 Dec 3.8 11:13:19 10° N 11:17:34 27° WNW 11:21:48 10° SW visible
03 Dec 5.7 22:27:21 10° SW 22:31:18 23° W 22:35:16 10° NW visible
04 Dec 5.8 08:58:47 10° ENE 09:01:32 15° E 09:04:17 10° SE visible
04 Dec 2.9 10:35:55 10° N 10:40:56 61° WNW 10:45:55 10° SSW visible
05 Dec 3.5 09:59:04 10° NNE 10:04:06 59° E 10:09:05 10° S visible
05 Dec 4.4 11:39:31 10° NNW 11:42:36 16° WNW 11:45:40 10° W visible
05 Dec 6.2 22:54:45 10° WSW 22:56:51 12° W 22:58:58 10° WNW visible
06 Dec 5.0 09:22:51 10° NE 09:27:04 26° E 09:31:16 10° SSE visible
06 Dec 3.5 11:01:32 10° N 11:06:06 34° WNW 11:10:39 10° SW visible
06 Dec 5.3 22:15:17 10° SSW 22:19:39 29° W 22:24:03 10° NW visible
07 Dec 6.1 08:48:31 10° ENE 08:49:51 11° E 08:51:10 10° ESE visible
07 Dec 2.8 10:24:19 10° N 10:29:24 78° WNW 10:34:28 10° SSW visible
08 Dec 4.0 09:47:37 10° NNE 09:52:30 46° E 09:57:22 10° S visible
08 Dec 4.2 11:27:29 10° NNW 11:31:10 21° WNW 11:34:50 10° WSW visible
08 Dec 5.9 22:42:02 10° SW 22:45:11 16° W 22:48:19 10° NW visible
09 Dec 5.4 09:11:42 10° NE 09:15:26 20° E 09:19:08 10° SE visible
09 Dec 3.2 10:49:48 10° N 10:54:37 44° WNW 10:59:24 10° SW visible
10 Dec 3.0 10:12:45 10° NNE 10:17:51 83° ESE 10:22:56 10° S visible
11 Dec 4.4 09:36:15 10° NNE 09:40:54 36° E 09:45:32 10° SSE visible
11 Dec 3.9 11:15:35 10° NNW 11:19:43 26° WNW 11:23:51 10° WSW visible
11 Dec 5.8 22:29:43 10° SW 22:33:30 21° W 22:37:19 10° NW visible
